{"data":{"norad_id":69171,"epoch":"2026-09-19T23:39:06.451776Z","epoch_age_seconds":71464,"freshness":"FRESH","line1":"1 69171U 26111Z   26262.98549134  .00014696  00000+0  44517-3 0  9995","line2":"2 69171  53.1580  67.8430 0001175 101.3531 258.7603 15.34405388 18825","mean_motion":15.34405388,"eccentricity":0.0001175,"inclination_deg":53.158,"raan_deg":67.843,"arg_perigee_deg":101.3531,"mean_anomaly_deg":258.7603,"bstar":0.00044517,"rev_number":1882,"period_min":93.847428538878,"perigee_km":461.88342913594,"apogee_km":463.49102282905,"semimajor_km":6840.8242259825,"source":"CELESTRAK","updated_at":"2026-09-20T09:00:44.094172Z"}}